Home > Weather > Nukualofa > Past weeks

Flag for Tonga Past Weather in Nukualofa, Tonga — Yesterday and Last 2 Weeks

Now
72 °F

Passing clouds.


Feels Like: 67 °F
Forecast: 68 / 81 °F
Wind: No wind

Location: Fua'Amotu

Current Time: May 31, 2016 at 9:33:24 AM

Latest Report: May 31, 2016 at 9:00 AM


Visibility: N/A

Pressure: 30.07 "Hg

Humidity: 94%

Dew Point: 70 °F

Location of NukualofaLocation

Past Weather in Nukualofa — Graph

°F

Nukualofa Temperature Yesterday

Maximum temperature yesterday: 82 °F (at 12:00 PM)
Minimum temperature yesterday: 68 °F (at 6:00 AM)
Average temperature yesterday: 74 °F

High & Low Weather Summary for the Past Weeks

 TemperatureHumidityPressure
High82 °F (May 16, 1:00 PM)100% (May 16, 9:00 AM)30.09 "Hg (May 16, 9:00 AM)
Low61 °F (May 24, 2:00 AM)61% (May 19, 2:00 PM)29.83 "Hg (May 22, 5:00 AM)
Average74 °F88%29.99 "Hg
* Reported May 16 8:00 AM — May 31 8:00 AM, Nukualofa, Weather by CustomWeather, © 2016

Note: Actual official high and low records may vary slightly from our data, if they occured in-between our weather recording intervals... More about our weather records

Advertising

Nukualofa Weather History for the Previous 24 Hours

Scroll right to see more
 ConditionsComfort  
Time TempWeatherWind HumidityBarometerVisibility
8:00 AM
Tue, May 31
66 °FPassing clouds.No wind100%30.07 "HgN/A
7:00 AM66 °FFog.No wind94%30.07 "Hg3 mi
6:00 AM64 °FFog.No wind100%30.04 "Hg3 mi
5:00 AM66 °FFog.No wind94%30.04 "Hg3 mi
4:00 AM66 °FPassing clouds.No wind100%30.04 "HgN/A
3:00 AM66 °FPassing clouds.No wind100%30.04 "HgN/A
2:00 AM66 °FPassing clouds.No wind100%30.07 "HgN/A
1:00 AM68 °FPassing clouds.No wind100%30.07 "HgN/A
12:00 AM66 °FPassing clouds.No wind100%30.07 "HgN/A
11:00 PM
Mon, May 30
68 °FPassing clouds.No wind100%30.07 "HgN/A
10:00 PM68 °FPassing clouds.No wind100%30.07 "HgN/A
9:00 PM68 °FPassing clouds.No wind100%30.07 "HgN/A
8:00 PM70 °FPassing clouds.No wind100%30.04 "HgN/A
7:00 PM73 °FPassing clouds.No wind94%30.04 "HgN/A
6:00 PM79 °FPassing clouds.No wind84%30.01 "HgN/A
5:00 PM81 °FPassing clouds.No wind79%30.01 "HgN/A
4:00 PM81 °FPassing clouds.No wind79%30.01 "HgN/A
2:00 PM82 °FPassing clouds.2 mph74%30.01 "HgN/A
1:00 PM82 °FPassing clouds.5 mph74%30.04 "HgN/A
12:00 PM82 °FPassing clouds.No wind79%30.07 "HgN/A
11:00 AM81 °FPassing clouds.No wind79%30.09 "HgN/A
10:00 AM79 °FPassing clouds.No wind79%30.09 "HgN/A
9:00 AM73 °FPassing clouds.No wind94%30.09 "HgN/A
Weather by CustomWeather, © 2016

See weather overviewHow to use our weather pages